Overview Statistics Trail Chart Weather Telemetry Raw packets
 

This is the latest recevied weather packets stored in our database for station/object SQ5AAG-2. If no packets are shown the sender has not sent any weather packets the latest 10 day(s).

<< 98 99 100 101 102 103 104 >>
Time Temp. Humidity Pressure Rain* Wind** Luminosity Snow
1787852167 21.67° C 46% 1008.1 hPa 0 mm - - -
1787851900 22.22° C 46% 1008.1 hPa 0 mm - - -
1787851867 22.22° C 46% 1008.1 hPa 0 mm - - -
1787851614 22.78° C 45% 1008.1 hPa 0 mm - - -
1787851567 22.78° C 45% 1008.1 hPa 0 mm - - -
1787851268 23.33° C 43% 1008 hPa 0 mm - - -
1787851005 23.33° C 42% 1007.9 hPa 0 mm - - -
1787850966 23.33° C 42% 1007.9 hPa 0 mm - - -
1787850666 24.44° C 41% 1007.9 hPa 0 mm - - -
1787850366 25.56° C 39% 1007.7 hPa 0 mm - - -
1787850096 25.56° C 38% 1007.8 hPa 0 mm - - -
1787850065 25.56° C 38% 1007.8 hPa 0 mm - - -
1787849465 27.78° C 37% 1007.6 hPa 0 mm - - -
1787849164 27.78° C 37% 1007.8 hPa 0 mm - - -
1787848927 27.78° C 37% 1007.9 hPa 0 mm - - -
1787848864 27.78° C 37% 1007.9 hPa 0 mm - - -
1787848566 27.78° C 37% 1007.6 hPa 0 mm - - -
1787848318 27.78° C 38% 1007.9 hPa 0 mm - - -
1787848263 27.78° C 38% 1007.9 hPa 0 mm - - -
1787847963 25.56° C 39% 1007.7 hPa 0 mm - - -
1787847664 25.56° C 40% 1007.9 hPa 0 mm - - -
1787847363 25° C 42% 1007.9 hPa 0 mm - - -
1787847063 23.89° C 42% 1007.8 hPa 0 mm - - -
1787846763 23.89° C 42% 1007.9 hPa 0 mm - - -
1787846520 23.89° C 42% 1007.9 hPa 0 mm - - -

* Rain latest hour (hover to see other rain measurements)
** Current wind speed in m/s (hover to see current wind gust speed)